Location: Colle Santa Colomba
(42.0333°N, 12.5667°E)
Time: 02:57:28
(UTC+00:00)

SL-24 R/B - RUBIN 2 - Pass Details

Date: 25 October 2021
Orbit: 596 x 999 km, 64.6° (Epoch: 04 December)

Event Time Altitude Azimuth Distance (km) Brightness Sun altitude
Rises 18:20:06 0° 200° (SSW) 3,621 7.7 -24.2°
Reaches altitude 10° 18:22:47 10° 197° (SSW) 2,636 6.9 -24.7°
Enters shadow 18:28:07 56° 150° (SSE) 1,044 4.4 -25.7°
